Time,TemperatureF,DewpointF,PressureIn,WindDirection,WindDirectionDegrees,WindSpeedMPH,WindSpeedGustMPH,Humidity,HourlyPrecipIn,Conditions,Clouds,dailyrainin,SoftwareType,DateUTC
2013-12-30 00:00:00,23.0,19.0,30.25,NNW,331,9.0,13.0,83,0.00,,,0.00,weatherlink.com 1.10,2013-12-30 06:00:00,
2013-12-30 00:15:00,22.8,18.0,30.25,NNW,348,9.0,14.0,82,0.00,,,0.00,weatherlink.com 1.10,2013-12-30 06:15:00,
2013-12-30 00:30:00,22.9,19.0,30.26,NNW,330,6.0,13.0,83,0.00,,,0.00,weatherlink.com 1.10,2013-12-30 06:30:00,
2013-12-30 00:45:00,22.7,18.0,30.26,NW,311,6.0,12.0,82,0.00,,,0.00,weatherlink.com 1.10,2013-12-30 06:45:00,
2013-12-30 01:00:00,22.5,18.0,30.26,NNW,327,9.0,11.0,81,0.00,,,0.00,weatherlink.com 1.10,2013-12-30 07:00:00,
2013-12-30 01:15:00,22.2,17.0,30.27,NNW,328,7.0,12.0,81,0.00,,,0.00,weatherlink.com 1.10,2013-12-30 07:15:00,
2013-12-30 01:30:00,21.9,17.0,30.27,NW,325,8.0,10.0,81,0.00,,,0.00,weatherlink.com 1.10,2013-12-30 07:30:00,
2013-12-30 01:45:00,21.6,17.0,30.27,North,350,8.0,12.0,81,0.00,,,0.00,weatherlink.com 1.10,2013-12-30 07:45:00,
2013-12-30 02:00:00,21.3,16.0,30.28,NW,312,5.0,10.0,81,0.00,,,0.00,weatherlink.com 1.10,2013-12-30 08:00:00,
2013-12-30 02:15:00,21.0,16.0,30.29,NW,324,7.0,11.0,81,0.00,,,0.00,weatherlink.com 1.10,2013-12-30 08:15:00,
2013-12-30 02:30:00,20.9,16.0,30.29,NW,313,4.0,10.0,82,0.00,,,0.00,weatherlink.com 1.10,2013-12-30 08:30:00,
2013-12-30 02:45:00,20.7,16.0,30.30,NW,323,5.0,10.0,82,0.00,,,0.00,weatherlink.com 1.10,2013-12-30 08:45:00,
2013-12-30 03:00:00,20.2,16.0,30.31,NNW,327,11.0,11.0,82,0.00,,,0.00,weatherlink.com 1.10,2013-12-30 09:00:00,
2013-12-30 03:15:00,19.6,14.0,30.31,NW,317,10.0,12.0,80,0.00,,,0.00,weatherlink.com 1.10,2013-12-30 09:15:00,
2013-12-30 03:30:00,19.1,14.0,30.31,NNW,327,7.0,12.0,80,0.00,,,0.00,weatherlink.com 1.10,2013-12-30 09:30:00,
2013-12-30 03:45:00,18.9,14.0,30.31,NW,320,9.0,10.0,80,0.00,,,0.00,weatherlink.com 1.10,2013-12-30 09:45:00,
2013-12-30 04:00:00,18.9,14.0,30.32,NW,315,4.0,9.0,81,0.00,,,0.00,weatherlink.com 1.10,2013-12-30 10:00:00,
2013-12-30 04:15:00,18.6,14.0,30.32,NW,313,7.0,8.0,81,0.00,,,0.00,weatherlink.com 1.10,2013-12-30 10:15:00,
2013-12-30 04:30:00,18.4,14.0,30.32,NW,323,4.0,9.0,81,0.00,,,0.00,weatherlink.com 1.10,2013-12-30 10:30:00,
2013-12-30 04:45:00,18.2,13.0,30.32,NNW,328,5.0,9.0,81,0.00,,,0.00,weatherlink.com 1.10,2013-12-30 10:45:00,
2013-12-30 05:00:00,18.1,14.0,30.33,NW,324,5.0,7.0,82,0.00,,,0.00,weatherlink.com 1.10,2013-12-30 11:00:00,
2013-12-30 05:15:00,18.0,13.0,30.33,NNW,331,5.0,9.0,82,0.00,,,0.00,weatherlink.com 1.10,2013-12-30 11:15:00,
2013-12-30 05:30:00,17.6,13.0,30.33,NNW,348,4.0,8.0,81,0.00,,,0.00,weatherlink.com 1.10,2013-12-30 11:30:00,
2013-12-30 05:45:00,17.2,12.0,30.33,North,355,7.0,9.0,80,0.00,,,0.00,weatherlink.com 1.10,2013-12-30 11:45:00,
2013-12-30 06:00:00,16.8,12.0,30.34,North,349,6.0,9.0,80,0.00,,,0.00,weatherlink.com 1.10,2013-12-30 12:00:00,
2013-12-30 06:15:00,16.6,11.0,30.34,North,355,5.0,9.0,79,0.00,,,0.00,weatherlink.com 1.10,2013-12-30 12:15:00,
2013-12-30 06:30:00,16.5,11.0,30.34,North,355,7.0,9.0,80,0.00,,,0.00,weatherlink.com 1.10,2013-12-30 12:30:00,
2013-12-30 06:45:00,16.3,11.0,30.34,North,351,5.0,7.0,80,0.00,,,0.00,weatherlink.com 1.10,2013-12-30 12:45:00,
2013-12-30 07:00:00,16.2,11.0,30.35,North,360,4.0,8.0,78,0.00,,,0.00,weatherlink.com 1.10,2013-12-30 13:00:00,
2013-12-30 07:16:00,16.1,11.0,30.35,North,350,5.0,7.0,79,0.00,,,0.00,weatherlink.com 1.10,2013-12-30 13:16:00,
2013-12-30 07:31:00,16.1,11.0,30.35,North,355,6.0,8.0,81,0.00,,,0.00,weatherlink.com 1.10,2013-12-30 13:31:00,
2013-12-30 07:46:00,16.2,12.0,30.36,North,350,4.0,7.0,82,0.00,,,0.00,weatherlink.com 1.10,2013-12-30 13:46:00,
2013-12-30 08:01:00,16.4,12.0,30.36,North,350,2.0,6.0,83,0.00,,,0.00,weatherlink.com 1.10,2013-12-30 14:01:00,
2013-12-30 08:16:00,16.6,12.0,30.36,North,350,3.0,6.0,83,0.00,,,0.00,weatherlink.com 1.10,2013-12-30 14:16:00,
2013-12-30 08:31:00,17.0,12.0,30.36,North,360,1.0,7.0,82,0.00,,,0.00,weatherlink.com 1.10,2013-12-30 14:31:00,
2013-12-30 08:46:00,17.4,13.0,30.37,North,355,2.0,5.0,82,0.00,,,0.00,weatherlink.com 1.10,2013-12-30 14:46:00,
2013-12-30 09:01:00,17.9,13.0,30.37,NNE,23,2.0,5.0,80,0.00,,,0.00,weatherlink.com 1.10,2013-12-30 15:01:00,
2013-12-30 09:16:00,18.5,13.0,30.37,North,360,3.0,5.0,78,0.00,,,0.00,weatherlink.com 1.10,2013-12-30 15:16:00,
2013-12-30 09:31:00,18.8,13.0,30.38,NNE,12,0.0,8.0,79,0.00,,,0.00,weatherlink.com 1.10,2013-12-30 15:31:00,
2013-12-30 09:46:00,19.3,13.0,30.38,North,355,1.0,5.0,77,0.00,,,0.00,weatherlink.com 1.10,2013-12-30 15:46:00,
2013-12-30 10:01:00,19.5,13.0,30.38,NNE,13,2.0,8.0,77,0.00,,,0.00,weatherlink.com 1.10,2013-12-30 16:01:00,
2013-12-30 10:31:00,20.6,14.0,30.37,North,10,0.0,5.0,75,0.00,,,0.00,weatherlink.com 1.10,2013-12-30 16:31:00,
2013-12-30 10:46:00,20.8,14.0,30.36,North,355,1.0,8.0,74,0.00,,,0.00,weatherlink.com 1.10,2013-12-30 16:46:00,
2013-12-30 11:01:00,21.3,13.0,30.36,NNW,328,2.0,7.0,69,0.00,,,0.00,weatherlink.com 1.10,2013-12-30 17:01:00,
2013-12-30 11:16:00,22.1,12.0,30.35,North,9,1.0,5.0,66,0.00,,,0.00,weatherlink.com 1.10,2013-12-30 17:16:00,
2013-12-30 11:31:00,22.5,13.0,30.34,NE,44,2.0,5.0,66,0.00,,,0.00,weatherlink.com 1.10,2013-12-30 17:31:00,
2013-12-30 11:46:00,23.4,11.0,30.33,NW,325,4.0,5.0,59,0.00,,,0.00,weatherlink.com 1.10,2013-12-30 17:46:00,
2013-12-30 12:01:00,24.0,11.0,30.32,NNE,13,1.0,4.0,59,0.00,,,0.00,weatherlink.com 1.10,2013-12-30 18:01:00,
2013-12-30 12:16:00,23.9,11.0,30.32,NNE,13,2.0,5.0,59,0.00,,,0.00,weatherlink.com 1.10,2013-12-30 18:16:00,
2013-12-30 12:31:00,24.1,11.0,30.31,SE,142,3.0,5.0,58,0.00,,,0.00,weatherlink.com 1.10,2013-12-30 18:31:00,
2013-12-30 12:46:00,24.4,11.0,30.31,West,268,1.0,4.0,58,0.00,,,0.00,weatherlink.com 1.10,2013-12-30 18:46:00,
2013-12-30 13:01:00,25.0,12.0,30.31,West,269,2.0,4.0,58,0.00,,,0.00,weatherlink.com 1.10,2013-12-30 19:01:00,
2013-12-30 13:16:00,25.6,13.0,30.30,West,271,0.0,5.0,58,0.00,,,0.00,weatherlink.com 1.10,2013-12-30 19:16:00,
2013-12-30 13:31:00,26.2,14.0,30.30,NNW,342,2.0,6.0,60,0.00,,,0.00,weatherlink.com 1.10,2013-12-30 19:31:00,
2013-12-30 13:46:00,25.9,13.0,30.29,NNW,333,4.0,6.0,59,0.00,,,0.00,weatherlink.com 1.10,2013-12-30 19:46:00,
2013-12-30 14:01:00,25.9,12.0,30.28,NNW,330,4.0,5.0,56,0.00,,,0.00,weatherlink.com 1.10,2013-12-30 20:01:00,
2013-12-30 14:16:00,26.5,11.0,30.29,NNW,330,3.0,6.0,52,0.00,,,0.00,weatherlink.com 1.10,2013-12-30 20:16:00,
2013-12-30 14:31:00,26.1,10.0,30.28,NNW,329,4.0,5.0,51,0.00,,,0.00,weatherlink.com 1.10,2013-12-30 20:31:00,
2013-12-30 14:46:00,26.3,11.0,30.28,NNW,329,3.0,4.0,52,0.00,,,0.00,weatherlink.com 1.10,2013-12-30 20:46:00,
2013-12-30 15:01:00,27.0,12.0,30.28,NW,321,1.0,5.0,54,0.00,,,0.00,weatherlink.com 1.10,2013-12-30 21:01:00,
2013-12-30 15:16:00,27.1,13.0,30.28,NW,321,2.0,5.0,56,0.00,,,0.00,weatherlink.com 1.10,2013-12-30 21:16:00,
2013-12-30 15:31:00,26.9,14.0,30.28,NW,321,0.0,4.0,58,0.00,,,0.00,weatherlink.com 1.10,2013-12-30 21:31:00,
2013-12-30 15:46:00,27.0,13.0,30.28,NW,321,0.0,2.0,57,0.00,,,0.00,weatherlink.com 1.10,2013-12-30 21:46:00,
2013-12-30 16:01:00,26.9,14.0,30.28,NW,321,0.0,3.0,58,0.00,,,0.00,weatherlink.com 1.10,2013-12-30 22:01:00,
2013-12-30 16:16:00,26.7,14.0,30.28,NW,321,1.0,3.0,58,0.00,,,0.00,weatherlink.com 1.10,2013-12-30 22:16:00,
2013-12-30 16:31:00,26.6,14.0,30.28,South,179,2.0,4.0,60,0.00,,,0.00,weatherlink.com 1.10,2013-12-30 22:31:00,
2013-12-30 16:46:00,26.5,15.0,30.28,South,179,1.0,5.0,62,0.00,,,0.00,weatherlink.com 1.10,2013-12-30 22:46:00,
2013-12-30 17:01:00,26.3,14.0,30.28,South,179,1.0,4.0,60,0.00,,,0.00,weatherlink.com 1.10,2013-12-30 23:01:00,
2013-12-30 17:16:00,26.0,14.0,30.28,South,179,0.0,3.0,62,0.00,,,0.00,weatherlink.com 1.10,2013-12-30 23:16:00,
2013-12-30 17:31:00,25.8,15.0,30.29,South,179,1.0,3.0,63,0.00,,,0.00,weatherlink.com 1.10,2013-12-30 23:31:00,
2013-12-30 17:47:00,25.6,14.0,30.29,South,179,0.0,2.0,63,0.00,,,0.00,weatherlink.com 1.10,2013-12-30 23:47:00,
2013-12-30 18:02:00,25.4,15.0,30.29,South,179,0.0,1.0,66,0.00,,,0.00,weatherlink.com 1.10,2013-12-31 00:02:00,
2013-12-30 18:17:00,25.1,18.0,30.29,South,179,0.0,0.0,73,0.00,,,0.00,weatherlink.com 1.10,2013-12-31 00:17:00,
2013-12-30 18:32:00,24.6,15.0,30.29,South,179,0.0,0.0,68,0.00,,,0.00,weatherlink.com 1.10,2013-12-31 00:32:00,
2013-12-30 18:47:00,24.5,16.0,30.29,South,179,0.0,0.0,70,0.00,,,0.00,weatherlink.com 1.10,2013-12-31 00:47:00,
2013-12-30 19:02:00,24.1,16.0,30.29,South,179,0.0,0.0,70,0.00,,,0.00,weatherlink.com 1.10,2013-12-31 01:02:00,
2013-12-30 19:17:00,23.4,16.0,30.30,South,179,0.0,0.0,73,0.00,,,0.00,weatherlink.com 1.10,2013-12-31 01:17:00,
2013-12-30 19:32:00,22.6,16.0,30.30,South,179,0.0,0.0,76,0.00,,,0.00,weatherlink.com 1.10,2013-12-31 01:32:00,
2013-12-30 19:47:00,22.1,15.0,30.30,South,179,0.0,0.0,75,0.00,,,0.00,weatherlink.com 1.10,2013-12-31 01:47:00,
2013-12-30 20:01:00,21.8,17.0,30.30,South,179,1.0,1.0,80,0.00,,,0.00,weatherlink.com 1.10,2013-12-31 02:01:00,
2013-12-30 20:17:00,22.9,18.0,30.29,South,179,3.0,4.0,81,0.00,,,0.00,weatherlink.com 1.10,2013-12-31 02:17:00,
2013-12-30 20:32:00,23.9,18.0,30.29,South,179,0.0,2.0,77,0.00,,,0.00,weatherlink.com 1.10,2013-12-31 02:32:00,
2013-12-30 20:47:00,24.0,18.0,30.30,South,179,0.0,2.0,77,0.00,,,0.00,weatherlink.com 1.10,2013-12-31 02:47:00,
2013-12-30 21:02:00,24.0,18.0,30.30,South,179,0.0,3.0,78,0.00,,,0.00,weatherlink.com 1.10,2013-12-31 03:02:00,
2013-12-30 21:17:00,24.0,18.0,30.29,South,179,2.0,3.0,77,0.00,,,0.00,weatherlink.com 1.10,2013-12-31 03:17:00,
2013-12-30 21:32:00,24.2,18.0,30.29,South,179,1.0,3.0,77,0.00,,,0.00,weatherlink.com 1.10,2013-12-31 03:32:00,
2013-12-30 21:47:00,24.1,18.0,30.29,South,179,3.0,4.0,76,0.00,,,0.00,weatherlink.com 1.10,2013-12-31 03:47:00,
2013-12-30 22:02:00,24.4,18.0,30.30,South,179,4.0,4.0,75,0.00,,,0.00,weatherlink.com 1.10,2013-12-31 04:02:00,
2013-12-30 22:17:00,24.9,18.0,30.29,South,179,3.0,5.0,74,0.00,,,0.00,weatherlink.com 1.10,2013-12-31 04:17:00,
2013-12-30 22:32:00,25.1,18.0,30.28,SSW,192,4.0,7.0,74,0.00,,,0.00,weatherlink.com 1.10,2013-12-31 04:32:00,
2013-12-30 22:47:00,25.6,17.0,30.29,SSW,211,4.0,5.0,71,0.00,,,0.00,weatherlink.com 1.10,2013-12-31 04:47:00,
2013-12-30 23:02:00,26.0,17.0,30.30,SW,218,2.0,7.0,69,0.00,,,0.00,weatherlink.com 1.10,2013-12-31 05:02:00,
2013-12-30 23:17:00,26.3,17.0,30.30,SSW,204,3.0,6.0,68,0.00,,,0.00,weatherlink.com 1.10,2013-12-31 05:17:00,
2013-12-30 23:32:00,26.5,17.0,30.29,SSW,207,3.0,7.0,68,0.00,,,0.00,weatherlink.com 1.10,2013-12-31 05:32:00,
2013-12-30 23:47:00,26.8,18.0,30.29,SSW,192,4.0,8.0,68,0.00,,,0.00,weatherlink.com 1.10,2013-12-31 05:47:00,